�������l�o���
Date,Time,MP-1(��Sv/h),MP-2(��Sv/h),MP-3(��Sv/h),MP-4(��Sv/h),MP-5(��Sv/h),MP-6(��Sv/h),MP-7(��Sv/h),MP-8(��Sv/h),����,����(m/s),���J
2020/08/13,00:00,0.691,0.995,0.625,1.197,0.872,0.398,0.687,0.642,���쐼,5.9,��
2020/08/13,00:10,0.691,0.994,0.625,1.197,0.872,0.398,0.686,0.641,���쐼,6.6,��
2020/08/13,00:20,0.691,0.992,0.623,1.199,0.872,0.397,0.686,0.642,���쐼,7.5,��
2020/08/13,00:30,0.690,0.996,0.623,1.197,0.873,0.400,0.686,0.641,���쐼,6.5,��
2020/08/13,00:40,0.690,0.993,0.624,1.198,0.872,0.398,0.687,0.641,���쐼,6.9,��
2020/08/13,00:50,0.691,0.995,0.622,1.196,0.873,0.399,0.687,0.644,��,5.1,��
2020/08/13,01:00,0.692,0.992,0.623,1.198,0.874,0.399,0.687,0.644,���쐼,3.8,��
2020/08/13,01:10,0.692,0.995,0.624,1.197,0.872,0.398,0.688,0.644,��,2.6,��
2020/08/13,01:20,0.692,0.993,0.623,1.198,0.871,0.398,0.685,0.644,�k�k��,1.2,��
2020/08/13,01:30,0.689,0.993,0.624,1.197,0.873,0.398,0.687,0.643,���k��,3.2,��
2020/08/13,01:40,0.693,0.994,0.624,1.197,0.871,0.398,0.688,0.642,���k��,5.6,��
2020/08/13,01:50,0.692,0.995,0.624,1.200,0.873,0.399,0.687,0.643,���k��,4.2,��
2020/08/13,02:00,0.691,0.996,0.623,1.198,0.872,0.399,0.687,0.642,���k��,3.7,��
2020/08/13,02:10,0.691,0.995,0.623,1.195,0.873,0.397,0.687,0.643,��,2.6,��
2020/08/13,02:20,0.692,0.994,0.624,1.197,0.872,0.400,0.686,0.642,���k��,1.1,��
2020/08/13,02:30,0.693,0.993,0.624,1.196,0.872,0.400,0.687,0.644,�k,2.5,��
2020/08/13,02:40,0.692,0.995,0.624,1.199,0.870,0.398,0.687,0.644,�k��,4.0,��
2020/08/13,02:50,0.693,0.995,0.625,1.197,0.872,0.398,0.688,0.643,�k��,4.0,��
2020/08/13,03:00,0.692,0.995,0.624,1.201,0.870,0.399,0.686,0.643,�k��,3.3,��
2020/08/13,03:10,0.692,0.994,0.624,1.198,0.871,0.399,0.686,0.642,�k��,3.4,��
2020/08/13,03:20,0.692,0.993,0.626,1.199,0.871,0.397,0.686,0.642,�k��,3.5,��
2020/08/13,03:30,0.692,0.993,0.623,1.198,0.872,0.398,0.687,0.643,���k��,4.7,��
2020/08/13,03:40,0.690,0.996,0.623,1.198,0.870,0.399,0.686,0.643,���k��,3.8,��
2020/08/13,03:50,0.693,0.994,0.623,1.198,0.873,0.398,0.686,0.643,���k��,2.8,��
2020/08/13,04:00,0.692,0.995,0.623,1.196,0.869,0.398,0.686,0.643,���k��,1.5,��
2020/08/13,04:10,0.694,0.994,0.623,1.198,0.871,0.399,0.686,0.642,�k�k��,2.0,��
2020/08/13,04:20,0.691,0.994,0.624,1.198,0.872,0.399,0.686,0.642,�k��,4.1,��
2020/08/13,04:30,0.692,0.994,0.624,1.199,0.873,0.398,0.687,0.643,���k��,5.6,��
2020/08/13,04:40,0.691,0.996,0.624,1.199,0.872,0.400,0.685,0.641,���k��,4.9,��
2020/08/13,04:50,0.690,0.993,0.625,1.198,0.872,0.399,0.687,0.643,���k��,4.9,��
2020/08/13,05:00,0.691,0.995,0.623,1.200,0.872,0.399,0.684,0.642,�k��,5.1,��
2020/08/13,05:10,0.690,0.994,0.624,1.199,0.873,0.399,0.685,0.643,�k��,4.6,��
2020/08/13,05:20,0.693,0.993,0.624,1.198,0.872,0.399,0.685,0.642,�k��,5.2,��
2020/08/13,05:30,0.692,0.996,0.625,1.196,0.872,0.398,0.685,0.642,�k�k��,4.6,��
2020/08/13,05:40,0.691,0.996,0.624,1.198,0.872,0.398,0.687,0.643,�k�k��,4.1,��
2020/08/13,05:50,0.692,0.995,0.627,1.197,0.872,0.398,0.686,0.644,�k�k��,4.5,��
2020/08/13,06:00,0.692,0.995,0.625,1.201,0.873,0.398,0.687,0.643,�k��,4.7,��
2020/08/13,06:10,0.692,0.995,0.624,1.199,0.871,0.397,0.686,0.642,�k�k��,4.0,��
2020/08/13,06:20,0.690,0.995,0.624,1.199,0.871,0.398,0.686,0.643,�k��,6.0,��
2020/08/13,06:30,0.693,0.994,0.625,1.197,0.869,0.399,0.686,0.642,���k��,7.2,��
2020/08/13,06:40,0.692,0.994,0.624,1.199,0.872,0.398,0.687,0.643,�k�k��,3.5,��
2020/08/13,06:50,0.691,0.993,0.626,1.200,0.873,0.401,0.688,0.642,�k,2.0,��
2020/08/13,07:00,0.691,0.993,0.624,1.199,0.872,0.399,0.687,0.644,�k��,3.0,��
2020/08/13,07:10,0.691,0.994,0.625,1.197,0.871,0.398,0.687,0.644,�k��,2.2,��
2020/08/13,07:20,0.692,0.995,0.625,1.198,0.872,0.398,0.687,0.643,��,1.5,��
2020/08/13,07:30,0.692,0.993,0.624,1.198,0.871,0.399,0.688,0.643,���k��,0.9,��
2020/08/13,07:40,0.693,0.993,0.625,1.199,0.870,0.398,0.688,0.644,��쓌,1.5,��
2020/08/13,07:50,0.690,0.995,0.621,1.201,0.868,0.398,0.687,0.644,�쓌,0.8,��
2020/08/13,08:00,0.693,0.994,0.625,1.198,0.871,0.398,0.688,0.643,��쓌,0.6,��
2020/08/13,08:10,0.691,0.992,0.624,1.199,0.873,0.397,0.688,0.644,��쓌,1.2,��
2020/08/13,08:20,0.693,0.993,0.624,1.197,0.872,0.398,0.689,0.643,�쐼,0.6,��
2020/08/13,08:30,0.693,0.995,0.623,1.201,0.871,0.397,0.688,0.644,���쐼,1.2,��
2020/08/13,08:40,0.692,0.994,0.624,1.201,0.872,0.398,0.689,0.642,�k�k��,1.4,��
2020/08/13,08:50,0.692,0.996,0.624,1.202,0.872,0.398,0.688,0.642,-,CALM,��
2020/08/13,09:00,0.691,0.997,0.625,1.202,0.871,0.397,0.690,0.641,�k��,1.7,��
2020/08/13,09:10,0.692,0.999,0.625,1.200,0.875,0.399,0.689,0.643,-,CALM,��
2020/08/13,09:20,0.692,0.997,0.625,1.201,0.874,0.398,0.689,0.642,��,1.7,��
2020/08/13,09:30,0.692,0.999,0.625,1.203,0.876,0.398,0.687,0.641,��,1.4,��
2020/08/13,09:40,0.693,0.999,0.628,1.202,0.876,0.398,0.688,0.644,��,1.7,��
2020/08/13,09:50,0.692,0.999,0.626,1.201,0.875,0.398,0.687,0.642,��,4.3,��
2020/08/13,10:00,0.695,1.000,0.627,1.203,0.878,0.400,0.687,0.642,��,0.8,��
2020/08/13,10:10,0.694,1.000,0.629,1.203,0.876,0.399,0.684,0.642,���쓌,2.6,��
2020/08/13,10:20,0.692,1.001,0.627,1.206,0.878,0.399,0.687,0.642,�쓌,3.7,��
2020/08/13,10:30,0.693,1.001,0.628,1.202,0.878,0.400,0.687,0.643,�쓌,3.5,��
2020/08/13,10:40,0.692,1.003,0.629,1.203,0.882,0.400,0.687,0.642,��쓌,4.1,��
2020/08/13,10:50,0.692,1.001,0.629,1.200,0.880,0.401,0.687,0.643,�쓌,3.7,��
2020/08/13,11:00,0.694,1.000,0.629,1.205,0.878,0.399,0.688,0.643,��쓌,3.4,��
2020/08/13,11:10,0.696,1.000,0.628,1.205,0.876,0.400,0.688,0.643,��,2.2,��
2020/08/13,11:20,0.697,1.003,0.629,1.204,0.875,0.399,0.688,0.643,��,2.9,��
2020/08/13,11:30,0.696,0.999,0.627,1.202,0.879,0.399,0.688,0.645,���k��,5.3,��
2020/08/13,11:40,0.696,0.999,0.628,1.200,0.881,0.400,0.689,0.645,��,8.6,��
2020/08/13,11:50,0.697,1.000,0.629,1.203,0.880,0.400,0.686,0.645,��,9.0,��
2020/08/13,12:00,0.696,1.000,0.631,1.204,0.881,0.399,0.687,0.646,��,9.1,��
2020/08/13,12:10,0.697,1.001,0.631,1.205,0.883,0.399,0.687,0.646,��,7.8,��
2020/08/13,12:20,0.696,1.003,0.629,1.206,0.880,0.401,0.691,0.647,��,9.2,��
2020/08/13,12:30,0.699,1.003,0.631,1.204,0.883,0.400,0.691,0.647,���쐼,8.0,��
2020/08/13,12:40,0.699,1.005,0.630,1.203,0.884,0.400,0.691,0.648,��,7.8,��
2020/08/13,12:50,0.697,1.006,0.630,1.206,0.884,0.400,0.692,0.647,��,7.4,��
2020/08/13,13:00,0.699,1.001,0.629,1.207,0.882,0.401,0.691,0.647,�k��,2.0,��
2020/08/13,13:10,0.697,0.992,0.631,1.206,0.883,0.401,0.690,0.648,�k�k��,2.9,��
2020/08/13,13:20,0.697,0.998,0.629,1.203,0.884,0.398,0.692,0.646,��,2.9,��
2020/08/13,13:30,0.696,1.001,0.628,1.206,0.882,0.398,0.691,0.646,���쓌,3.0,��
2020/08/13,13:40,0.696,0.981,0.627,1.208,0.882,0.398,0.688,0.646,���쓌,4.5,��
2020/08/13,13:50,0.694,0.993,0.625,1.207,0.881,0.397,0.688,0.646,���쓌,3.6,��
2020/08/13,14:00,0.694,0.995,0.627,1.208,0.881,0.399,0.688,0.645,�쓌,4.5,��
2020/08/13,14:10,0.695,0.994,0.625,1.208,0.882,0.396,0.688,0.644,�쓌,4.2,��
2020/08/13,14:20,0.696,0.996,0.626,1.209,0.883,0.398,0.689,0.644,�쓌,4.5,��
2020/08/13,14:30,0.696,0.995,0.626,1.211,0.881,0.397,0.690,0.644,�쓌,4.0,��
2020/08/13,14:40,0.695,0.996,0.627,1.211,0.881,0.398,0.688,0.644,�쓌,3.1,��
2020/08/13,14:50,0.694,0.995,0.627,1.207,0.881,0.397,0.688,0.642,��쓌,3.4,��
2020/08/13,15:00,0.694,0.997,0.625,1.205,0.881,0.397,0.687,0.644,�쓌,4.0,��
2020/08/13,15:10,0.694,0.996,0.626,1.208,0.881,0.399,0.691,0.643,�쓌,4.2,��
2020/08/13,15:20,0.694,0.995,0.627,1.207,0.881,0.396,0.689,0.644,�쓌,3.4,��
2020/08/13,15:30,0.694,0.997,0.629,1.207,0.880,0.395,0.687,0.643,�쓌,3.3,��
2020/08/13,15:40,0.694,0.996,0.630,1.208,0.882,0.398,0.688,0.643,�쓌,2.3,��
2020/08/13,15:50,0.695,0.996,0.628,1.206,0.882,0.397,0.688,0.643,��,1.7,��
2020/08/13,16:00,0.694,0.996,0.629,1.205,0.882,0.397,0.687,0.642,�쐼,0.6,��
2020/08/13,16:10,0.694,0.997,0.628,1.207,0.882,0.397,0.689,0.643,��,0.9,��
2020/08/13,16:20,0.695,0.997,0.628,1.207,0.882,0.397,0.690,0.644,��쓌,1.7,��
2020/08/13,16:30,0.695,0.997,0.629,1.206,0.881,0.398,0.688,0.644,��쓌,3.3,��
2020/08/13,16:40,0.695,0.998,0.629,1.208,0.883,0.398,0.687,0.645,��쓌,2.6,��
2020/08/13,16:50,0.695,0.995,0.630,1.206,0.881,0.398,0.687,0.644,�쓌,3.1,��
2020/08/13,17:00,0.697,0.998,0.629,1.207,0.881,0.397,0.688,0.644,��쓌,3.1,��
2020/08/13,17:10,0.696,0.998,0.628,1.211,0.881,0.398,0.689,0.643,��쓌,3.4,��
2020/08/13,17:20,0.696,0.997,0.630,1.208,0.883,0.399,0.688,0.646,��쓌,3.8,��
2020/08/13,17:30,0.695,0.997,0.629,1.210,0.882,0.398,0.689,0.645,��,3.4,��
2020/08/13,17:40,0.694,0.998,0.628,1.209,0.882,0.398,0.687,0.643,��쓌,1.9,��
2020/08/13,17:50,0.694,0.996,0.628,1.209,0.882,0.397,0.689,0.644,��,2.0,��
2020/08/13,18:00,0.696,0.996,0.628,1.209,0.880,0.399,0.687,0.645,��,2.3,��
2020/08/13,18:10,0.697,0.997,0.628,1.208,0.881,0.398,0.689,0.646,��쐼,2.6,�L
2020/08/13,18:20,0.696,0.996,0.629,1.207,0.879,0.397,0.688,0.645,��,2.6,�L
2020/08/13,18:30,0.697,0.997,0.628,1.208,0.878,0.397,0.689,0.645,�쐼,1.9,�L
2020/08/13,18:40,0.695,0.999,0.627,1.204,0.870,0.397,0.687,0.644,��쐼,2.2,�L
2020/08/13,18:50,0.695,0.997,0.628,1.198,0.864,0.398,0.687,0.644,-,CALM,�L
2020/08/13,19:00,0.696,0.998,0.627,1.196,0.865,0.397,0.686,0.644,�쓌,0.6,��
2020/08/13,19:10,0.695,0.999,0.627,1.194,0.865,0.396,0.685,0.644,��,1.1,��
2020/08/13,19:20,0.697,0.998,0.628,1.195,0.865,0.397,0.687,0.642,-,CALM,��
2020/08/13,19:30,0.696,0.996,0.628,1.195,0.866,0.396,0.686,0.644,��,0.9,��
2020/08/13,19:40,0.697,0.997,0.628,1.194,0.864,0.398,0.686,0.642,��,1.4,��
2020/08/13,19:50,0.695,1.000,0.627,1.194,0.865,0.396,0.684,0.643,��,1.7,��
2020/08/13,20:00,0.696,0.999,0.627,1.190,0.866,0.398,0.687,0.643,��쓌,1.7,��
2020/08/13,20:10,0.695,0.999,0.628,1.192,0.864,0.398,0.687,0.644,-,CALM,��
2020/08/13,20:20,0.695,0.998,0.629,1.193,0.864,0.395,0.686,0.643,�쐼,0.6,��
2020/08/13,20:30,0.695,0.998,0.627,1.194,0.864,0.398,0.688,0.642,�쐼,1.5,��
2020/08/13,20:40,0.697,1.000,0.629,1.194,0.864,0.397,0.685,0.644,�쐼,1.2,��
2020/08/13,20:50,0.695,1.001,0.629,1.191,0.864,0.397,0.686,0.642,���쐼,2.0,��
2020/08/13,21:00,0.695,0.999,0.628,1.195,0.863,0.397,0.689,0.645,�쐼,2.3,��
2020/08/13,21:10,0.697,0.999,0.628,1.194,0.865,0.396,0.687,0.643,��,2.0,��
2020/08/13,21:20,0.694,0.998,0.627,1.195,0.864,0.397,0.686,0.642,���쐼,1.7,��
2020/08/13,21:30,0.696,0.999,0.629,1.196,0.864,0.397,0.685,0.643,�쐼,1.7,��
2020/08/13,21:40,0.696,1.000,0.629,1.193,0.861,0.397,0.687,0.643,�쐼,2.6,��
2020/08/13,21:50,0.698,0.999,0.630,1.196,0.863,0.397,0.687,0.645,���쐼,2.3,��
2020/08/13,22:00,0.696,0.998,0.628,1.196,0.865,0.396,0.687,0.643,���쐼,2.3,��
2020/08/13,22:10,0.696,0.999,0.629,1.197,0.864,0.397,0.687,0.643,�쐼,1.5,��
2020/08/13,22:20,0.696,1.001,0.630,1.195,0.862,0.397,0.686,0.644,�쐼,1.4,��
2020/08/13,22:30,0.696,1.000,0.627,1.195,0.863,0.398,0.686,0.644,���쐼,0.8,��
2020/08/13,22:40,0.698,0.998,0.629,1.195,0.861,0.396,0.688,0.644,�k�k��,0.9,��
2020/08/13,22:50,0.698,0.997,0.627,1.196,0.864,0.398,0.687,0.644,�k��,1.4,��
2020/08/13,23:00,0.696,0.998,0.626,1.197,0.864,0.397,0.686,0.645,�k��,2.6,��
2020/08/13,23:10,0.696,1.001,0.629,1.196,0.864,0.395,0.687,0.644,���k��,2.6,��
2020/08/13,23:20,0.697,1.000,0.629,1.195,0.864,0.397,0.687,0.644,���k��,3.2,��
2020/08/13,23:30,0.697,0.998,0.628,1.197,0.863,0.396,0.686,0.644,���k��,3.4,��
2020/08/13,23:40,0.697,0.998,0.628,1.196,0.863,0.397,0.687,0.644,�k��,3.4,��
2020/08/13,23:50,0.698,0.999,0.630,1.198,0.865,0.398,0.687,0.644,���k��,2.3,��
